Volver al catálogo

STARLINK-3804

ActivoComunicacionesVLEO
NORAD 52270·PAYLOAD·🇺🇸 United States

Lanzado Apr 21, 2022 desde Cape Canaveral Space Force Station

Loading…

Próximos Pases (próximas 24 horas)

TLE

ActualizadoSource: CelesTrak SupGP

Época: Sep 14, 2026, 14:12 UTC

1 52270C 22041K   26257.59215278  .00012608  00000+0  37256-3 0  2575
2 52270  53.1594 335.3654 0001016  70.9584 353.5561 15.34380120    11

Sigue STARLINK-3804 en tiempo real con AllMySat

Download on the App Store